Time,TemperatureF,DewpointF,PressureIn,WindDirection,WindDirectionDegrees,WindSpeedMPH,WindSpeedGustMPH,Humidity,HourlyPrecipIn,Conditions,Clouds,dailyrainin,SoftwareType,DateUTC
2013-01-23 07:53:00,35.0,33.0,29.85,ESE,122,0.0,0.0,94,0.00,,,0.00,,2013-01-23 15:53:00,
2013-01-23 08:03:00,35.0,33.0,29.85,ESE,122,0.0,0.0,94,0.00,,,0.00,,2013-01-23 16:03:00,
2013-01-23 08:12:00,35.0,33.0,29.85,ESE,122,0.0,0.0,94,0.00,,,0.00,,2013-01-23 16:12:00,
2013-01-23 08:22:00,35.0,34.0,29.83,ESE,122,0.0,1.0,95,0.00,,,0.00,,2013-01-23 16:22:00,
2013-01-23 08:32:00,35.0,33.0,29.82,ESE,122,0.0,1.0,94,0.00,,,0.00,,2013-01-23 16:32:00,
2013-01-23 08:42:00,35.0,33.0,29.82,ESE,122,0.0,1.0,94,0.00,,,0.00,,2013-01-23 16:42:00,
2013-01-23 08:52:00,35.0,33.0,29.81,ESE,122,0.0,0.0,94,0.00,,,0.00,,2013-01-23 16:52:00,
2013-01-23 09:02:00,35.0,33.0,29.81,ESE,122,0.0,1.0,94,0.00,,,0.00,,2013-01-23 17:02:00,
2013-01-23 09:12:00,35.0,33.0,29.81,ESE,122,0.0,1.0,94,0.00,,,0.00,,2013-01-23 17:12:00,
2013-01-23 09:22:00,35.0,34.0,29.83,ESE,122,0.0,0.0,95,0.00,,,0.00,,2013-01-23 17:22:00,
2013-01-23 09:33:00,35.0,34.0,29.83,ESE,122,0.0,0.0,95,0.00,,,0.00,,2013-01-23 17:33:00,
2013-01-23 09:42:00,35.0,34.0,29.83,ESE,122,0.0,0.0,95,0.00,,,0.00,,2013-01-23 17:42:00,
2013-01-23 09:53:00,35.0,34.0,29.84,ESE,122,0.0,0.0,95,0.00,,,0.00,,2013-01-23 17:53:00,
2013-01-23 10:03:00,36.0,35.0,29.84,ESE,122,0.0,1.0,95,0.00,,,0.00,,2013-01-23 18:03:00,
2013-01-23 10:12:00,36.0,35.0,29.84,ESE,122,0.0,1.0,95,0.00,,,0.00,,2013-01-23 18:12:00,
2013-01-23 10:22:00,36.0,35.0,29.84,ESE,122,0.0,1.0,95,0.00,,,0.00,,2013-01-23 18:22:00,
2013-01-23 10:32:00,36.0,35.0,29.84,ESE,122,0.0,1.0,95,0.00,,,0.00,,2013-01-23 18:32:00,
2013-01-23 10:42:00,37.0,36.0,29.84,ESE,122,0.0,1.0,95,0.00,,,0.00,,2013-01-23 18:42:00,
2013-01-23 10:53:00,37.0,36.0,29.85,ESE,122,0.0,0.0,95,0.00,,,0.00,,2013-01-23 18:53:00,
2013-01-23 11:02:00,37.0,36.0,29.84,ESE,122,0.0,1.0,95,0.00,,,0.00,,2013-01-23 19:02:00,
2013-01-23 11:12:00,37.0,36.0,29.84,ESE,122,0.0,1.0,95,0.00,,,0.00,,2013-01-23 19:12:00,
2013-01-23 11:22:00,37.0,36.0,29.84,ESE,122,0.0,1.0,95,0.00,,,0.00,,2013-01-23 19:22:00,
2013-01-23 11:32:00,38.0,37.0,29.83,ESE,122,0.0,1.0,95,0.00,,,0.00,,2013-01-23 19:32:00,
2013-01-23 11:42:00,38.0,37.0,29.83,ESE,122,0.0,1.0,95,0.00,,,0.00,,2013-01-23 19:42:00,
2013-01-23 11:53:00,38.0,37.0,29.83,ESE,122,0.0,1.0,95,0.00,,,0.00,,2013-01-23 19:53:00,
2013-01-23 12:02:00,38.0,37.0,29.83,ESE,122,0.0,0.0,95,0.00,,,0.00,,2013-01-23 20:02:00,
2013-01-23 12:12:00,38.0,37.0,29.83,ESE,122,0.0,0.0,95,0.00,,,0.00,,2013-01-23 20:12:00,
2013-01-23 12:22:00,39.0,38.0,29.83,ESE,122,0.0,0.0,96,0.00,,,0.00,,2013-01-23 20:22:00,
2013-01-23 12:32:00,39.0,38.0,29.83,ESE,122,0.0,0.0,95,0.00,,,0.00,,2013-01-23 20:32:00,
2013-01-23 12:42:00,39.0,38.0,29.83,ESE,122,0.0,0.0,95,0.00,,,0.00,,2013-01-23 20:42:00,
2013-01-23 12:53:00,39.0,38.0,29.82,ESE,122,0.0,0.0,96,0.00,,,0.00,,2013-01-23 20:53:00,
2013-01-23 13:02:00,40.0,39.0,29.81,ESE,122,0.0,0.0,96,0.00,,,0.00,,2013-01-23 21:02:00,
2013-01-23 13:12:00,40.0,39.0,29.81,ESE,122,0.0,0.0,96,0.00,,,0.00,,2013-01-23 21:12:00,
2013-01-23 13:22:00,40.0,39.0,29.81,ESE,122,0.0,0.0,96,0.00,,,0.00,,2013-01-23 21:22:00,
2013-01-23 13:32:00,40.0,39.0,29.81,ESE,122,0.0,0.0,96,0.00,,,0.00,,2013-01-23 21:32:00,
2013-01-23 13:42:00,40.0,39.0,29.81,ESE,122,0.0,0.0,96,0.00,,,0.00,,2013-01-23 21:42:00,
2013-01-23 13:53:00,41.0,40.0,29.81,ESE,122,0.0,0.0,96,0.00,,,0.00,,2013-01-23 21:53:00,
2013-01-23 14:02:00,41.0,40.0,29.81,ESE,122,0.0,0.0,96,0.00,,,0.00,,2013-01-23 22:02:00,
2013-01-23 14:12:00,41.0,40.0,29.81,ESE,122,0.0,0.0,96,0.00,,,0.00,,2013-01-23 22:12:00,
2013-01-23 14:22:00,41.0,40.0,29.81,ESE,122,0.0,0.0,96,0.00,,,0.00,,2013-01-23 22:22:00,
2013-01-23 14:33:00,41.0,40.0,29.81,ESE,122,0.0,0.0,96,0.00,,,0.00,,2013-01-23 22:33:00,
2013-01-23 14:42:00,41.0,40.0,29.81,ESE,122,0.0,0.0,96,0.00,,,0.00,,2013-01-23 22:42:00,
2013-01-23 14:53:00,41.0,40.0,29.81,ESE,122,0.0,0.0,95,0.01,,,0.01,,2013-01-23 22:53:00,
2013-01-23 15:02:00,41.0,40.0,29.82,ESE,122,0.0,0.0,95,0.02,,,0.02,,2013-01-23 23:02:00,
2013-01-23 15:12:00,41.0,40.0,29.82,ESE,122,0.0,0.0,95,0.02,,,0.02,,2013-01-23 23:12:00,
2013-01-23 15:22:00,40.0,39.0,29.83,ESE,122,0.0,0.0,95,0.04,,,0.04,,2013-01-23 23:22:00,
2013-01-23 15:32:00,40.0,39.0,29.84,ESE,122,0.0,0.0,95,0.05,,,0.05,,2013-01-23 23:32:00,
2013-01-23 15:42:00,40.0,39.0,29.84,ESE,122,0.0,0.0,95,0.05,,,0.05,,2013-01-23 23:42:00,
2013-01-23 15:53:00,40.0,39.0,29.84,ESE,122,0.0,1.0,95,0.06,,,0.07,,2013-01-23 23:53:00,
2013-01-23 16:02:00,40.0,39.0,29.85,ESE,122,0.0,2.0,95,0.07,,,0.09,,2013-01-24 00:02:00,
2013-01-23 16:11:00,40.0,39.0,29.85,ESE,122,0.0,2.0,95,0.07,,,0.09,,2013-01-24 00:11:00,
2013-01-23 16:22:00,40.0,39.0,29.87,SE,126,0.0,3.0,95,0.07,,,0.11,,2013-01-24 00:22:00,
2013-01-23 16:32:00,40.0,39.0,29.87,South,173,0.0,3.0,95,0.07,,,0.12,,2013-01-24 00:32:00,
2013-01-23 16:42:00,40.0,39.0,29.87,South,173,0.0,3.0,95,0.07,,,0.12,,2013-01-24 00:42:00,
2013-01-23 16:53:00,41.0,40.0,29.88,South,172,1.0,4.0,95,0.06,,,0.13,,2013-01-24 00:53:00,
2013-01-23 17:02:00,41.0,40.0,29.89,South,173,0.0,3.0,95,0.05,,,0.14,,2013-01-24 01:02:00,
2013-01-23 17:12:00,41.0,40.0,29.89,South,173,0.0,3.0,95,0.05,,,0.14,,2013-01-24 01:12:00,
2013-01-23 17:22:00,41.0,40.0,29.90,South,187,0.0,6.0,95,0.04,,,0.15,,2013-01-24 01:22:00,
2013-01-23 17:32:00,41.0,40.0,29.91,South,188,3.0,6.0,95,0.05,,,0.16,,2013-01-24 01:32:00,
2013-01-23 17:42:00,41.0,40.0,29.91,South,188,3.0,6.0,95,0.05,,,0.16,,2013-01-24 01:42:00,
2013-01-23 17:52:00,41.0,40.0,29.92,SE,142,3.0,6.0,95,0.04,,,0.17,,2013-01-24 01:52:00,
2013-01-23 18:02:00,41.0,40.0,29.92,SE,144,1.0,3.0,95,0.03,,,0.17,,2013-01-24 02:02:00,
2013-01-23 18:11:00,41.0,40.0,29.92,SE,144,1.0,3.0,95,0.03,,,0.17,,2013-01-24 02:11:00,
2013-01-23 18:22:00,40.0,38.0,29.93,West,281,2.0,9.0,94,0.02,,,0.17,,2013-01-24 02:22:00,
2013-01-23 18:32:00,40.0,38.0,29.93,SSE,159,0.0,10.0,94,0.01,,,0.17,,2013-01-24 02:32:00,
2013-01-23 18:42:00,40.0,38.0,29.93,SSE,159,0.0,10.0,94,0.01,,,0.17,,2013-01-24 02:42:00,
2013-01-23 18:52:00,40.0,38.0,29.93,SSE,159,0.0,10.0,94,0.01,,,0.17,,2013-01-24 02:52:00,
2013-01-23 19:02:00,40.0,38.0,29.94,SSE,160,0.0,4.0,94,0.00,,,0.17,,2013-01-24 03:02:00,
2013-01-23 19:11:00,40.0,38.0,29.94,SSE,160,0.0,4.0,94,0.00,,,0.17,,2013-01-24 03:11:00,
2013-01-23 19:22:00,40.0,38.0,29.95,West,265,0.0,2.0,94,0.00,,,0.17,,2013-01-24 03:22:00,
2013-01-23 19:32:00,40.0,38.0,29.95,SW,222,0.0,2.0,94,0.00,,,0.17,,2013-01-24 03:32:00,
2013-01-23 19:42:00,40.0,38.0,29.95,SW,222,0.0,2.0,94,0.00,,,0.17,,2013-01-24 03:42:00,
2013-01-23 19:52:00,39.0,37.0,29.96,SSE,155,0.0,4.0,94,0.00,,,0.17,,2013-01-24 03:52:00,
2013-01-23 20:02:00,39.0,37.0,29.97,South,182,1.0,5.0,94,0.00,,,0.17,,2013-01-24 04:02:00,
2013-01-23 20:12:00,39.0,37.0,29.97,South,182,1.0,5.0,94,0.00,,,0.17,,2013-01-24 04:12:00,
2013-01-23 20:22:00,39.0,37.0,29.98,SSE,157,0.0,7.0,94,0.00,,,0.17,,2013-01-24 04:22:00,
2013-01-23 20:32:00,39.0,37.0,29.99,SSE,168,0.0,6.0,94,0.00,,,0.17,,2013-01-24 04:32:00,
2013-01-23 20:42:00,39.0,37.0,29.99,SSE,168,0.0,6.0,94,0.00,,,0.17,,2013-01-24 04:42:00,
2013-01-23 20:52:00,39.0,37.0,30.00,SSE,168,0.0,1.0,94,0.00,,,0.17,,2013-01-24 04:52:00,
2013-01-23 21:03:00,39.0,37.0,30.01,SSE,168,0.0,0.0,94,0.00,,,0.17,,2013-01-24 05:03:00,
2013-01-23 21:12:00,39.0,37.0,30.01,SSE,168,0.0,0.0,94,0.00,,,0.17,,2013-01-24 05:12:00,
2013-01-23 21:22:00,39.0,37.0,30.02,South,169,0.0,0.0,94,0.00,,,0.17,,2013-01-24 05:22:00,
2013-01-23 21:32:00,39.0,37.0,30.03,South,169,0.0,1.0,94,0.00,,,0.17,,2013-01-24 05:32:00,
2013-01-23 21:42:00,39.0,37.0,30.03,South,169,0.0,1.0,94,0.00,,,0.17,,2013-01-24 05:42:00,
2013-01-23 21:53:00,39.0,37.0,30.04,South,174,1.0,3.0,94,0.00,,,0.17,,2013-01-24 05:53:00,
2013-01-23 22:02:00,39.0,37.0,30.05,South,174,0.0,1.0,94,0.00,,,0.17,,2013-01-24 06:02:00,
2013-01-23 22:12:00,39.0,37.0,30.05,South,174,0.0,1.0,94,0.00,,,0.17,,2013-01-24 06:12:00,
2013-01-23 22:22:00,39.0,37.0,30.06,SE,136,3.0,5.0,94,0.00,,,0.17,,2013-01-24 06:22:00,
2013-01-23 22:32:00,39.0,37.0,30.06,WSW,241,0.0,3.0,94,0.00,,,0.17,,2013-01-24 06:32:00,
2013-01-23 22:42:00,39.0,37.0,30.06,WSW,241,0.0,3.0,94,0.00,,,0.17,,2013-01-24 06:42:00,
2013-01-23 22:52:00,40.0,38.0,30.08,SW,231,0.0,2.0,94,0.00,,,0.17,,2013-01-24 06:52:00,
2013-01-23 23:02:00,40.0,38.0,30.08,South,170,2.0,6.0,94,0.00,,,0.17,,2013-01-24 07:02:00,
2013-01-23 23:12:00,40.0,38.0,30.08,South,170,2.0,6.0,94,0.00,,,0.17,,2013-01-24 07:12:00,
2013-01-23 23:22:00,40.0,38.0,30.09,SE,139,0.0,5.0,94,0.00,,,0.17,,2013-01-24 07:22:00,
2013-01-23 23:32:00,40.0,38.0,30.09,South,186,0.0,5.0,94,0.00,,,0.17,,2013-01-24 07:32:00,
2013-01-23 23:42:00,40.0,38.0,30.09,South,186,0.0,5.0,94,0.00,,,0.17,,2013-01-24 07:42:00,
2013-01-23 23:53:00,40.0,38.0,30.10,South,185,1.0,5.0,94,0.00,,,0.17,,2013-01-24 07:53:00,